Regional Weather Roundup
Issued by NWS

Home | Current Version | Previous Version | Text Only | Print | Product List | Glossary On
Versions: 1 2 3 4 5 6 7 8 9 10 11 12 13 14 15 16 17 18 19 20 21 22 23 24 25 26 27 28 29 30 31 32 33 34 35 36 37 38 39 40 41 42 43 44 45 46 47 48 49 50
000
ASUS43 KLSX 290807
RWRMO

WEATHER SUMMARY FOR MISSOURI
NATIONAL WEATHER SERVICE SPRINGFIELD MO
200 AM CST SAT NOV 29 2014

NOTE: "FAIR" INDICATES FEW OR NO CLOUDS BELOW 12,000 FEET WITH NO
       SIGNIFICANT WEATHER AND/OR OBSTRUCTIONS TO VISIBILITY.
       CURRENT SKY AND/OR WEATHER CONDITIONS ARE NOT AVAILABLE FOR
       CHILLICOTHE AND FARMINGTON.

MOZ001>031-035>038-043-044-053-054-290900-
...NORTHERN AND WESTERN MISSOURI...

CITY           SKY/WX    TMP DP  RH WIND       PRES   REMARKS
KANSAS CTY INT CLOUDY    51  41  68 SW15      29.68S
KANSAS C DTWN  CLOUDY    55  43  63 SW9       29.69S
LEE`S SUMMIT   CLOUDY    54  44  69 SW20G31   29.70F
ST JOSEPH      CLOUDY    48  38  68 S10       29.66F
CHILLICOTHE      N/A     41  35  79 S6        29.68F
KIRKSVILLE     PTCLDY    44  38  79 S10       29.69F

$$
MOZ066>068-077>081-088>096-101>105-290900-
...SOUTHWEST MISSOURI...

CITY           SKY/WX    TMP DP  RH WIND       PRES   REMARKS
SPRINGFIELD    CLOUDY    46  39  76 S12       29.82F
JOPLIN         CLOUDY    54  46  74 S14       29.80F

$$
MOZ032>034-039>042-045>050-055>058-069>072-290900-
...CENTRAL MISSOURI...

CITY           SKY/WX    TMP DP  RH WIND       PRES   REMARKS
COLUMBIA       MOCLDY    45  37  73 S12       29.76F
JEFFERSON CITY MOCLDY    46  36  68 SE6       29.78F
ROLLA          MOCLDY    46  37  71 S16       29.79F
SEDALIA        MOCLDY    54  44  69 SW18G25   29.73F
WHITEMAN AFB   MOCLDY    53  45  74 SW20      29.71F
WARRENSBURG    CLOUDY    54  45  71 S14G22    29.72S
OSAGE BEACH    CLOUDY    45  36  70 SE6       29.79F

$$
MOZ051-052-059>065-290900-
...EAST CENTRAL MISSOURI...

CITY           SKY/WX    TMP DP  RH WIND       PRES   REMARKS
ST LOUIS INTL  PTCLDY    45  34  65 S12       29.85F
SPIRIT OF STL  MOCLDY    41  33  73 CALM      29.83F
ST CHARLES     PTCLDY    34  32  92 E8        29.84F WCI  27

$$
MOZ072>076-082>087-097>100-106>115-290900-
...SOUTH CENTRAL AND SOUTHEAST MISSOURI...

CITY           SKY/WX    TMP DP  RH WIND       PRES   REMARKS
CAPE GIRARDEAU MOCLDY    42  32  67 S8        29.99F
FARMINGTON     MOCLDY    43  36  75 S9        29.90F
POPLAR BLUFF   PTCLDY    42  33  70 SW7       29.96F
WEST PLAINS    MOCLDY    45  37  73 S7        29.90S

$$



USA.gov is the U.S. government's official web portal to all federal, state and local government web resources and services.